Погода в Асерхове

Россия / Владимирская область     55°56′49″N   40°14′56″E
темп.,
°C
ветер,
м/с
пор.,
м/с
влажн.,
%
обл.,
%
осадки,
мм/ч
давл.,
гПа
погр.,
м
17 июня, чт
чт1700:00+12ссз35672 0.0 101883
03:00+11с22721 0.0 102025
06:00+14ссз237391 0.0 1021106
09:00+18ссз465756 0.0 1022555
12:00+20ссз56475 0.0 10231138
15:00+21ссз46485 0.0 10241458
18:00+20с256025 0.0 10241001
21:00+15с11720 0.0 102511
18 июня, пт
пт1800:00+13з11730 0.0 102611
03:00+12з22810 0.0 102723
06:00+15зсз12775 0.0 1028102
09:00+20з23575 0.0 1028559
12:00+24сз234792 0.0 10271467
15:00+25ссз23445 0.0 10261748
18:00+25ссз12556 0.0 10251421
21:00+18юз22775 0.0 102623
19 июня, сб
сб1900:00+15зюз358959 0.0 102789
03:00+14зюз37896 0.0 1027127
06:00+17зюз37825 0.0 1027197
09:00+22зюз45605 0.0 1027663
12:00+25зюз45457 0.0 10261330
15:00+27зюз45425 0.0 10241607
18:00+25зюз35575 0.0 1024639
21:00+19юз36805 0.0 1024104
20 июня, вс
вс2000:00+16юз36935 0.0 1025104
03:00+15зюз36965 0.0 1025104
06:00+18зюз25870 0.0 1025158
09:00+23юз23650 0.0 1025660
12:00+26юз34460 0.0 10241395
15:00+28юз34390 0.0 10221613
18:00+26юз35540 0.0 1022388
21:00+19юз23791 0.0 102235
21 июня, пн
пн2100:00+16юз239030 0.0 102243
03:00+16юз239458 0.0 102246
06:00+19юз248480 0.0 1022139
09:00+24зюз23635 0.0 1022557
12:00+28зюз23502 0.0 10211283
15:00+29зсз23462 0.0 10211710
18:00+29з125714 0.0 10201253
21:00+22з22760 0.0 102112